Probability
0 0 0 0 0 0 0 0 0 0 0 0 0 0 0 0 0 0 0 0 0 0 0 0 0 0 0 0 0 0 0 0 0 0 0 0 0 0 0 0 0 0 0 0
0 0 0 0 0 0 0 0 0 0 0 0 0 0 0 0 0 0 0 0 0 0 0 0 0 0 0 0 0 0 0 0 0 0 0 0 0 0 0 0 0 0 0 0
0 0 0 0 0 0 0 0 0 0 0 0 0 0 0 0 0 0 0 0 0 0 0 0 0 0 0 0 0 0 0 0 0 0 0 0 0 0 0 0 0 0 0 0
0 0 0 0 0 0 0 0 0 0 0 0 0 0 0 0 0 0 0 0 0 0 0 0 0 0 0 0 0 0 0 0 0 0 0 0 0 0 0 0 0 0 0 0
0 0 0 0 0 0 0 0 0 0 0 0 0 0 0 0 0 0 0 0 0 0 0 0 0 0 0 0 0 0 0 0 0 0 0 0 0 0 0 0 0 0 0 0
0 0 0 0 0 0 0 0 0 0 0 0 0 0 0 0 0 0 0 0 0 0 0 0 0 0 0 0 0 0 0 0 0 0 0 0 0 0 0 0 0 0 0 0
0 0 0 0 0 0 0 0 0 0 0 0 0 0 0 0 0 0 0 0 0 0 0 0 0 0 0 0 0 0 0 0 0 0 0 0 0 0 0 0 0 0 0 0
0 0 0 0 0 0 0 0 0 0 0 0 0 0 0 0 0 0 0 0 0 0 0 0 0 0 0 0 0 0 0 0 0 0 0 0 0 0 0 0 0 0 0 0
0 0 0 0 0 0 0 0 0 0 0 0 0 0 0 0 0 0 0 0 0 0 0 0 0 0 0 0 0 0 0 0 0 0 0 0 0 0 0 0 0 0 0 0
0 0 0 0 0 0 0 0 0 0 0 0 0 0 0 0 0 0 0 0 0 0 0 0 0 0 0 0 0 0 0 0 0 0 0 0 0 0 0 0 0 0 0 0
0 0 0 0 0 0 0 0 0 0 0 0 0 0 0 0 0 0 0 0 0 0 0 0 0 0 0 0 0 0 0 0 0 0 0 0 0 0 0 0 0 0 0 0
0 0 0 0 0 0 0 0 0 0 0 0 0 0 0 0 0 0 0 0 0 0 0 0 0 0 0 0 0 0 0 0 0 0 0 0 0 0 0 0 0 0 0 0
0 0 0 0 0 0 0 0 0 0 0 0 0 0 0 0 0 0 0 0 0 0 0 0 0 0 0 0 0 0 0 0 0 0 0 0 0 0 0 0 0 0 0 0
0 0 0 0 0 0 0 0 0 0 0 0 0 0 0 0 0 0 0 0 0 0 0 0 0 0 0 0 0 0 0 0 0 0 0 0 0 0 0 0 0 0 0 0
0 0 0 0 0 0 0 0 0 0 0 0 0 0 0 0 0 0 0 0 0 0 0 0 0 0 0 0 0 0 0 0 0 0 0 0 0 0 0 0 0 0 0 0
0 0 0 0 0 0 0 0 0 0 0 0 0 0 0 0 0 0 0 0 0 0 0 0 0 0 0 0 0 0 0 0 0 0 0 0 0 0 0 0 0 0 0 0
0 0 0 0 0 0 0 0 0 0 0 0 0 0 0 0 0 0 0 0 0 0 0 0 0 0 0 0 0 0 0 0 0 0 0 0 0 0 0 0 0 0 0 0
0 0 0 0 0 0 0 0 0 0 0 0 0 0 0 0 0 0 0 0 0 0 0 0 0 0 0 0 0 0 0 0 0 0 0 0 0 0 0 0 0 0 0 0
0 0 0 0 0 0 0 0 0 0 0 0 0 0 0 0 0 0 0 0 0 0 0 0 0 0 0 0 0 0 0 0 0 0 0 0 0 0 0 0 0 0 0 0
0 0 0 0 0 0 0 0 0 0 0 0 0 0 0 0 0 0 0 0 0 0 0 0 0 0 0 0 0 0 0 0 0 0 0 0 0 0 0 0 0 0 0 0
0 0 0 0 0 0 0 0 0 0 0 0 0 0 0 0 0 0 0 0 0 0 0 0 0 0 0 0 0 0 0 0 0 0 0 0 0 0 0 0 0 0 0 0
0 0 0 0 0 0 0 0 0 0 0 0 0 0 0 0 0 0 0 0 0 0 0 0 0 0 0 0 0 0 0 0 0 0 0 0 0 0 0 0 0 0 0 0
0 0 0 0 0 0 0 0 0 0 0 0 0 0 0 0 0 0 0 0 0 0 0 0 0 0 0 0 0 0 0 0 0 0 0 0 0 0 0 0 0 0 0 0
0 0 0 0 0 0 0 0 0 0 0 0 0 0 0 0 0 0 0 0 0 0 0 0 0 0 0 0 0 0 0 0 0 0 0 0 0 0 0 0 0 0 0 0
0 0 0 0 0 0 0 0 0 0 0 0 0 0 0 0 0 0 0 0 0 0 0 0 0 0 0 0 0 0 0 0 0 0 0 0 0 0 0 0 0 0 0 0
0 0 0 0 0 0 0 0 0 0 0 0 0 0 0 0 0 0 0 0 0 0 0 0 0 0 0 0 0 0 0 0 0 0 0 0 0 0 0 0 0 0 0 0
Height
5708 5709 5709 5710 5710 5710 5710 5711 5711 5712 5712 5712 5712 5713 5714 5714 5715 5716 5717 5719 5721 5722 5724 5725 5727 5730 5731 5733 5736 5738 5740 5742 5745 5747 5749 5752 5754 5756 5758 5760 5762 5763 5765 5767
5704 5704 5705 5704 5704 5704 5705 5705 5706 5707 5707 5707 5708 5708 5709 5709 5710 5712 5713 5715 5717 5718 5719 5721 5723 5725 5726 5728 5730 5732 5734 5736 5738 5740 5743 5745 5747 5749 5751 5752 5754 5756 5758 5760
5698 5700 5699 5698 5699 5699 5700 5701 5702 5702 5703 5702 5703 5704 5705 5705 5706 5708 5709 5711 5712 5714 5715 5717 5718 5720 5722 5723 5725 5726 5728 5730 5732 5734 5736 5738 5739 5740 5742 5744 5747 5749 5751 5753
5691 5692 5693 5693 5693 5694 5695 5696 5696 5697 5697 5698 5699 5699 5702 5701 5702 5704 5705 5707 5708 5709 5710 5712 5713 5715 5716 5718 5719 5721 5723 5724 5726 5727 5729 5731 5732 5734 5736 5738 5740 5742 5743 5745
5685 5686 5686 5687 5688 5688 5690 5690 5691 5691 5692 5693 5694 5694 5697 5697 5698 5700 5701 5702 5703 5704 5705 5706 5708 5709 5710 5712 5714 5715 5717 5718 5720 5721 5723 5724 5726 5728 5729 5731 5733 5735 5736 5738
5678 5679 5680 5681 5682 5682 5683 5684 5685 5685 5686 5687 5689 5689 5691 5693 5694 5695 5696 5697 5697 5699 5700 5701 5702 5703 5704 5706 5708 5710 5711 5712 5713 5715 5716 5717 5719 5721 5722 5724 5725 5727 5729 5730
5671 5673 5673 5674 5675 5676 5677 5679 5679 5679 5679 5682 5684 5683 5686 5688 5689 5690 5691 5691 5692 5693 5694 5696 5696 5698 5699 5701 5702 5704 5705 5706 5707 5708 5709 5711 5712 5713 5715 5716 5718 5719 5721 5722
5664 5666 5667 5668 5669 5670 5671 5672 5674 5674 5674 5676 5677 5678 5682 5683 5684 5684 5685 5686 5687 5688 5689 5690 5691 5692 5694 5695 5696 5697 5698 5699 5700 5701 5702 5703 5704 5705 5706 5708 5709 5711 5712 5713
5655 5658 5659 5661 5662 5663 5664 5665 5667 5668 5668 5669 5670 5673 5676 5677 5678 5678 5679 5680 5681 5682 5683 5684 5685 5686 5687 5688 5689 5690 5691 5691 5692 5693 5694 5695 5697 5697 5699 5700 5701 5702 5703 5705
5646 5648 5650 5652 5653 5654 5656 5658 5659 5660 5661 5662 5664 5667 5670 5671 5672 5673 5673 5674 5675 5675 5676 5677 5678 5680 5681 5681 5682 5683 5684 5684 5685 5685 5686 5687 5688 5689 5690 5691 5692 5693 5695 5696
5636 5638 5640 5642 5644 5647 5649 5650 5651 5652 5654 5656 5657 5663 5663 5664 5666 5666 5667 5667 5668 5669 5670 5671 5672 5672 5673 5674 5675 5676 5676 5676 5677 5677 5678 5678 5679 5680 5681 5682 5683 5684 5685 5685
5626 5627 5629 5633 5635 5637 5639 5641 5643 5645 5647 5648 5650 5657 5656 5657 5658 5658 5659 5660 5661 5661 5662 5663 5664 5665 5666 5666 5667 5667 5668 5668 5668 5669 5669 5670 5670 5671 5671 5672 5672 5673 5674 5674
5615 5616 5619 5621 5626 5627 5629 5632 5634 5636 5637 5639 5642 5649 5648 5648 5649 5650 5651 5652 5653 5653 5654 5655 5656 5657 5658 5658 5659 5659 5659 5659 5659 5660 5660 5660 5660 5660 5661 5661 5662 5662 5662 5662
5604 5605 5609 5612 5615 5617 5620 5623 5625 5626 5627 5630 5634 5638 5640 5640 5641 5641 5642 5643 5644 5645 5645 5646 5647 5648 5649 5649 5650 5649 5649 5649 5649 5650 5650 5649 5649 5650 5650 5650 5650 5649 5649 5649
5592 5595 5598 5601 5604 5606 5609 5613 5614 5616 5619 5621 5626 5627 5630 5631 5631 5632 5632 5633 5634 5635 5636 5637 5637 5638 5639 5639 5640 5639 5639 5639 5638 5638 5638 5638 5638 5638 5637 5637 5637 5636 5636 5636
5582 5584 5587 5590 5593 5595 5597 5601 5603 5606 5608 5611 5614 5617 5620 5620 5620 5621 5622 5623 5624 5625 5626 5626 5627 5627 5628 5628 5629 5628 5628 5628 5627 5626 5626 5625 5625 5624 5624 5623 5623 5623 5622 5621
5571 5573 5576 5578 5581 5582 5585 5591 5594 5596 5599 5601 5603 5608 5608 5609 5609 5610 5611 5612 5613 5614 5614 5615 5616 5616 5616 5616 5616 5616 5616 5615 5615 5614 5613 5612 5612 5611 5610 5609 5609 5608 5607 5607
5560 5562 5564 5567 5570 5570 5578 5581 5583 5585 5587 5589 5592 5595 5596 5597 5598 5599 5600 5600 5601 5602 5603 5603 5604 5604 5604 5604 5603 5603 5603 5602 5601 5601 5600 5599 5598 5597 5596 5595 5594 5593 5592 5592
5549 5552 5553 5556 5557 5560 5566 5569 5571 5573 5576 5578 5580 5583 5584 5585 5586 5588 5588 5589 5590 5590 5591 5591 5591 5591 5591 5591 5590 5590 5590 5589 5588 5587 5586 5585 5584 5583 5582 5581 5579 5578 5577 5576
5539 5542 5544 5545 5547 5550 5557 5559 5560 5562 5564 5568 5568 5571 5572 5573 5575 5578 5577 5577 5577 5578 5578 5578 5578 5578 5578 5577 5577 5577 5576 5575 5574 5573 5572 5570 5569 5567 5566 5565 5564 5562 5561 5560
5529 5531 5533 5535 5536 5540 5545 5547 5549 5552 5555 5556 5557 5559 5560 5561 5563 5564 5564 5564 5565 5565 5565 5565 5565 5565 5564 5564 5563 5563 5562 5561 5560 5558 5557 5556 5554 5552 5551 5549 5548 5546 5545 5544
5519 5521 5523 5525 5527 5533 5534 5536 5538 5540 5542 5544 5545 5547 5548 5549 5550 5551 5552 5552 5552 5552 5552 5552 5552 5552 5551 5550 5549 5549 5548 5546 5545 5544 5543 5541 5539 5537 5535 5534 5532 5531 5530 5529
5509 5512 5514 5517 5520 5522 5523 5525 5526 5528 5531 5532 5534 5535 5537 5537 5538 5539 5539 5539 5539 5540 5539 5539 5538 5538 5537 5536 5535 5534 5533 5532 5531 5529 5528 5526 5524 5522 5520 5519 5517 5516 5515 5514
5500 5502 5504 5506 5509 5511 5513 5514 5516 5518 5519 5521 5522 5524 5525 5525 5526 5527 5527 5527 5527 5527 5526 5526 5525 5525 5524 5523 5521 5520 5519 5517 5516 5515 5513 5511 5509 5508 5506 5504 5503 5502 5501 5500
5490 5492 5494 5496 5499 5501 5503 5505 5506 5507 5509 5510 5511 5512 5513 5514 5514 5514 5515 5515 5514 5514 5513 5512 5512 5511 5510 5509 5507 5505 5503 5502 5501 5499 5498 5496 5495 5493 5492 5491 5490 5489 5488 5486
5481 5483 5485 5487 5489 5491 5493 5495 5496 5497 5498 5499 5500 5501 5502 5502 5502 5502 5502 5502 5502 5501 5500 5499 5498 5497 5496 5494 5493 5491 5489 5487 5486 5485 5483 5482 5481 5479 5478 5477 5477 5476 5475 5474
Wind_Speed
21 21 21 21 21 22 21 21 21 22 22 22 22 22 22 22 22 22 21 22 22 22 22 22 23 24 23 25 26 27 27 27 28 26 26 28 28 28 28 29 29 29 30 29
23 22 21 22 22 22 22 22 22 22 22 22 22 22 22 23 23 23 23 23 23 23 23 23 24 25 25 24 25 26 27 27 28 27 26 27 29 30 30 29 30 31 31 31
24 23 23 24 23 23 23 23 23 23 23 23 23 22 22 23 23 24 24 24 24 23 24 24 25 25 25 26 26 26 27 28 28 28 28 29 29 29 29 29 31 32 32 32
26 25 25 25 25 25 24 23 23 23 24 24 24 24 22 22 23 23 24 24 24 24 24 25 25 25 25 26 26 27 27 28 28 28 28 29 28 29 29 29 30 32 33 33
27 26 26 26 26 26 25 24 24 24 25 24 23 24 22 22 22 22 22 23 24 24 25 25 26 27 26 26 27 27 27 27 28 28 28 29 29 29 30 30 30 31 32 33
29 27 27 27 27 27 26 26 26 26 26 26 23 24 23 22 22 22 23 23 24 25 25 26 26 26 26 26 26 27 28 28 28 29 29 30 30 30 30 31 31 32 32 33
30 29 29 28 28 28 27 27 27 28 28 27 25 25 24 22 23 23 23 24 24 24 25 26 26 26 26 26 26 28 28 29 29 30 30 30 31 31 32 32 32 32 32 33
32 31 30 29 28 28 28 28 28 29 29 28 27 27 25 23 23 24 24 25 25 25 26 26 26 27 26 26 28 28 29 29 30 31 32 32 32 33 33 33 33 33 33 34
34 33 31 30 30 29 30 30 29 30 30 29 29 27 25 24 24 24 25 25 26 26 27 27 27 28 27 27 28 29 29 30 30 31 32 32 33 33 34 34 34 34 35 35
35 35 34 33 32 32 31 31 31 31 32 31 30 28 26 25 24 25 26 26 27 28 28 28 29 29 29 29 29 30 30 30 31 31 32 33 34 34 35 36 36 36 36 37
37 38 37 36 35 34 34 34 33 33 34 33 32 30 28 27 27 27 28 28 28 29 30 30 30 31 31 31 31 31 31 32 33 33 34 34 36 37 37 38 38 38 39 40
38 39 40 39 37 36 37 36 35 35 35 35 35 33 31 30 30 29 29 29 29 30 31 31 31 32 33 33 33 34 34 34 35 36 37 37 38 39 39 40 41 41 41 42
38 40 41 41 41 40 39 38 37 37 37 37 36 34 32 32 32 32 31 31 31 31 32 32 32 33 34 35 36 37 38 37 37 38 39 40 40 41 42 42 43 43 43 44
40 41 41 41 40 40 40 39 38 39 39 39 37 34 33 34 34 34 34 33 33 33 34 34 35 35 36 37 38 39 40 40 40 40 41 41 42 44 45 45 45 45 45 46
39 40 41 40 40 40 40 39 39 40 40 40 38 37 35 36 37 36 36 36 35 36 36 37 37 38 39 39 40 41 42 43 44 43 44 44 45 45 46 46 46 47 47 48
40 40 40 41 40 40 41 41 41 41 41 41 40 39 37 38 39 39 39 39 38 38 39 40 40 41 41 42 42 43 44 45 46 46 46 46 47 47 48 48 48 49 49 49
42 42 41 41 41 42 44 42 42 42 42 41 42 40 39 40 41 41 41 41 41 41 41 42 43 43 44 44 44 45 46 46 46 47 47 47 48 48 49 50 50 51 51 52
42 42 42 41 41 44 42 42 42 42 42 42 42 41 41 41 42 42 42 42 43 43 43 44 45 45 45 46 46 46 47 46 46 47 47 48 49 50 51 52 52 53 53 54
40 41 42 41 41 42 41 41 41 41 42 42 42 42 42 43 43 43 43 43 43 44 44 45 46 46 47 47 47 47 48 48 48 48 49 49 50 51 52 53 53 54 54 55
38 39 40 41 42 41 39 40 41 42 42 41 42 42 42 43 43 43 44 44 44 45 45 46 46 46 47 47 48 48 49 49 50 50 51 51 51 52 52 53 54 54 54 54
36 37 38 39 41 40 39 39 40 42 41 41 41 41 41 42 43 44 45 45 45 45 45 45 46 47 47 48 49 49 49 50 50 51 51 51 52 52 52 52 52 52 52 52
36 36 35 36 38 38 37 38 39 40 40 40 41 41 41 42 43 43 44 44 45 45 45 45 46 46 47 48 49 49 49 50 51 51 51 51 51 51 51 51 51 51 50 50
36 36 35 35 36 36 37 38 38 39 39 40 41 41 41 42 42 42 43 44 44 44 45 46 46 46 47 48 49 49 50 50 51 51 52 52 52 51 50 50 49 48 48 48
36 37 37 37 36 35 35 36 38 39 39 39 39 40 41 41 41 42 42 43 43 44 45 46 46 47 47 48 49 50 51 52 52 52 51 51 51 50 49 48 47 47 46 46
34 36 37 38 37 37 37 37 38 38 39 39 40 40 41 41 41 41 42 42 43 44 45 46 46 47 47 48 49 50 51 52 51 50 50 49 49 48 47 46 46 46 46 45
34 35 36 38 38 38 38 38 39 39 39 39 40 40 41 41 41 41 41 42 42 43 44 45 45 46 47 48 48 49 50 50 50 49 48 47 46 46 45 45 45 44 44 44
Wind_Direction
262 262 262 262 261 262 263 262 260 259 261 262 263 262 261 258 255 252 250 248 247 249 251 250 250 249 252 250 247 247 247 248 247 246 245 244 246 247 251 252 251 250 251 252
262 263 264 262 262 261 259 260 260 258 260 263 265 263 260 258 255 251 250 248 247 249 251 250 250 249 251 251 250 250 248 248 247 248 247 246 246 250 251 250 251 251 252 252
262 264 263 262 260 259 257 259 260 260 260 262 265 263 258 258 256 254 252 251 248 248 250 250 250 250 251 251 252 250 249 249 250 251 252 252 252 251 248 249 251 251 251 252
260 261 261 261 261 259 257 259 260 260 262 263 264 264 257 257 257 256 255 252 250 252 253 252 253 252 251 251 251 250 251 252 254 254 255 253 253 251 249 251 253 252 252 253
259 259 259 260 260 260 259 258 258 260 261 261 262 263 257 256 254 255 255 253 254 255 254 253 253 254 253 252 249 251 254 255 255 255 255 254 253 252 251 252 254 255 255 256
256 257 259 260 260 260 259 258 258 258 259 260 260 263 259 256 255 254 254 254 254 255 254 253 255 254 254 253 252 253 255 256 256 255 255 254 256 256 256 256 256 257 257 258
254 255 258 258 258 256 256 255 257 258 259 259 259 261 260 257 256 255 255 254 254 255 255 254 255 253 253 252 253 254 256 258 257 256 257 257 258 260 260 260 260 259 259 260
256 256 256 257 257 257 255 254 256 259 261 260 259 259 260 259 257 255 255 255 254 256 256 255 255 255 256 254 254 256 259 261 258 258 259 260 261 261 260 260 260 260 261 263
255 255 254 254 255 254 253 253 254 258 259 259 258 258 257 257 256 254 254 255 255 256 256 257 257 257 258 257 257 258 262 262 260 259 261 262 261 261 261 261 260 260 261 263
254 255 253 253 252 251 252 253 253 255 258 259 258 259 259 257 257 256 256 256 256 257 257 258 259 259 259 259 259 261 263 263 261 260 262 265 263 263 263 262 262 262 263 266
253 254 253 253 251 251 251 251 251 253 256 258 259 260 261 260 259 258 258 258 257 258 257 257 258 259 260 261 262 262 264 265 265 264 266 267 264 263 263 263 262 263 264 266
253 254 253 253 252 251 250 250 251 253 255 257 258 259 260 261 260 260 260 259 259 260 258 257 258 260 261 262 264 264 266 267 267 267 268 268 266 265 264 264 263 265 266 266
251 253 254 253 251 250 250 250 251 253 254 255 256 257 260 261 261 261 260 260 260 260 259 258 259 261 262 263 265 267 267 268 268 268 269 268 267 265 265 265 266 267 267 267
251 252 253 254 254 253 252 251 251 252 254 255 256 257 257 260 262 261 261 260 260 260 258 258 259 261 263 265 267 268 267 268 269 269 270 269 269 267 266 266 268 269 269 269
250 252 253 254 254 253 252 251 251 252 254 255 256 256 256 258 260 261 261 260 259 260 260 259 260 262 263 265 267 268 268 269 270 270 271 271 270 270 269 269 270 270 270 270
250 252 253 253 253 253 252 251 252 253 253 255 256 257 258 259 259 260 261 261 260 261 261 261 262 263 264 266 267 269 270 270 270 271 271 272 272 271 271 271 271 270 270 271
248 250 251 252 252 253 251 251 253 255 255 256 256 257 257 257 258 260 261 262 261 262 263 263 264 265 266 266 267 268 269 271 272 272 272 272 271 271 271 272 272 272 272 272
248 249 251 252 252 253 253 253 253 253 254 255 256 256 257 258 259 260 261 261 261 263 264 265 266 266 267 268 269 269 270 271 272 273 273 272 272 272 272 272 273 273 273 274
249 250 251 253 254 255 253 253 254 255 256 256 257 258 259 260 260 261 262 263 263 264 266 267 267 268 269 270 270 271 271 272 272 273 274 275 275 274 274 274 274 274 274 274
250 251 252 253 255 256 255 255 255 256 257 258 259 260 260 261 262 262 263 264 265 266 267 268 268 269 270 270 271 272 272 272 273 274 275 276 276 276 276 276 276 276 276 275
249 251 251 253 255 256 255 255 256 257 258 259 260 262 262 262 264 264 264 265 266 267 268 269 269 270 270 270 271 272 273 273 274 274 275 276 277 277 277 277 277 277 276 276
250 250 249 251 252 254 255 256 257 259 259 261 262 264 265 265 266 266 266 267 268 269 269 270 270 271 272 272 272 273 274 274 275 275 276 276 277 277 277 277 277 277 276 276
250 250 252 253 255 256 256 257 258 260 261 262 263 265 266 267 267 267 267 268 269 269 270 271 271 272 273 273 274 274 274 275 275 276 276 276 276 277 276 276 276 276 276 276
251 251 252 253 254 256 257 259 260 262 262 263 265 266 266 267 268 268 268 269 269 270 270 271 271 272 272 273 273 274 274 275 276 276 276 276 276 276 275 275 275 275 276 276
251 251 251 253 255 257 257 259 260 262 263 264 265 266 266 267 268 268 269 269 271 271 271 272 272 273 273 274 275 275 275 276 276 276 276 276 276 275 274 274 275 275 275 275
253 254 255 255 256 258 259 259 260 261 263 263 264 265 266 268 269 269 269 271 272 272 273 273 274 274 275 275 276 277 276 276 276 276 276 276 275 274 274 274 275 276 276 275